Location: Bluff Heights
(33.7692°N, 118.1592°W)
Time: 09:22:59
(UTC+00:00)

First-Move - Pass Details

Date: 26 September 2021
Orbit: 574 x 666 km, 97.6° (Epoch: 18 October)

Event Time Altitude Azimuth Distance (km) Brightness Sun altitude
Rises 12:48:40 0° 4° (N) 2,854 ? -12.3°
Reaches altitude 10° 12:50:55 10° 358° (N) 1,934 ? -11.8°
Maximum altitude 12:54:55 45° 286° (WNW) 799 ? -11.0°
Drops below altitude 10° 12:58:49 10° 213° (SSW) 1,886 ? -10.2°
Sets 13:01:00 0° 207° (SSW) 2,774 ? -9.7°
